When you browse on this site, cookies collect data to enhance your experience and personalize the content and advertising you see.
Visit our Privacy Policy to learn more. By continuing to use the site, you agree to this use of cookies and data.
  • In United Kingdom
  • List of Countries
  • For 7 days
  • Water Temperature
  • Satellite Maps
  • Weather Map
  • Weather Widgets
  • user-avatar
    Login

    Hourly Weather Kandahar

    Today, 24 March, Sunday

    Time Temperature Precipitation Wind Pressure Humidity
    00:00 +17°C° 0 mm 0 mps 676 mmHg 41%
    01:00 +17°C° 0 mm 0 mps 676 mmHg 44%
    02:00 +17°C° 0 mm 0 mps 676 mmHg 43%
    03:00 +17°C° 0 mm 0 mps 676 mmHg 42%
    04:00 +19°C° 0 mm 1 mps 675 mmHg 40%
    05:00 +19°C° 0 mm 1 mps 676 mmHg 39%
    06:00 +19°C° 0 mm 1 mps 676 mmHg 38%
    07:00 +19°C° 0 mm 1 mps 677 mmHg 37%
    08:00 +20°C° 0 mm 1 mps 677 mmHg 35%
    09:00 +21°C° 0 mm 1 mps 677 mmHg 33%
    10:00 +22°C° 0 mm 1 mps 677 mmHg 33%
    11:00 +22°C° 0 mm 1 mps 677 mmHg 32%
    12:00 +23°C° 0 mm 1 mps 676 mmHg 31%
    13:00 +23°C° 0 mm 1 mps 676 mmHg 30%
    14:00 +23°C° 0 mm 1 mps 676 mmHg 29%
    15:00 +24°C° 0 mm 1 mps 675 mmHg 29%
    16:00 +24°C° 0 mm 1 mps 675 mmHg 28%
    17:00 +23°C° 0 mm 1 mps 675 mmHg 30%
    18:00 +23°C° 0 mm 1 mps 675 mmHg 32%
    19:00 +23°C° 0 mm 1 mps 675 mmHg 35%
    20:00 +22°C° 0 mm 1 mps 675 mmHg 36%
    21:00 +22°C° 0 mm 1 mps 675 mmHg 38%
    22:00 +19°C° 0 mm 0 mps 675 mmHg 40%
    23:00 +21°C° 0 mm 1 mps 675 mmHg 42%

    Tomorrow, 25 March, Monday

    Time Temperature Precipitation Wind Pressure Humidity
    00:00 +20°C° 0 mm 1 mps 675 mmHg 43%
    01:00 +20°C° 0 mm 1 mps 675 mmHg 45%
    02:00 +19°C° 0 mm 1 mps 675 mmHg 46%
    03:00 +19°C° 0 mm 1 mps 675 mmHg 48%
    04:00 +18°C° 0 mm 1 mps 675 mmHg 50%
    05:00 +18°C° 0 mm 1 mps 675 mmHg 47%
    06:00 +18°C° 0 mm 2 mps 676 mmHg 45%
    07:00 +18°C° 0 mm 3 mps 676 mmHg 43%
    08:00 +19°C° 0 mm 2 mps 677 mmHg 40%
    09:00 +20°C° 0 mm 2 mps 678 mmHg 36%
    10:00 +21°C° 0 mm 2 mps 678 mmHg 33%
    11:00 +23°C° 0 mm 2 mps 678 mmHg 32%
    12:00 +24°C° 0 mm 1 mps 677 mmHg 30%
    13:00 +25°C° 0 mm 1 mps 677 mmHg 29%
    14:00 +25°C° 0 mm 1 mps 677 mmHg 28%
    15:00 +25°C° 0 mm 1 mps 676 mmHg 27%
    16:00 +25°C° 0 mm 1 mps 676 mmHg 26%
    17:00 +25°C° 0 mm 1 mps 676 mmHg 28%
    18:00 +24°C° 0 mm 1 mps 677 mmHg 31%
    19:00 +24°C° 0 mm 1 mps 677 mmHg 33%
    20:00 +23°C° 0 mm 2 mps 677 mmHg 34%
    21:00 +23°C° 0 mm 2 mps 677 mmHg 35%
    22:00 +21°C° 0 mm 2 mps 677 mmHg 36%
    23:00 +21°C° 0 mm 2 mps 677 mmHg 37%

    Day after tomorrow, 26 March, Tuesday

    Time Temperature Precipitation Wind Pressure Humidity
    00:00 +21°C° 0 mm 1 mps 677 mmHg 38%
    01:00 +21°C° 0 mm 1 mps 676 mmHg 40%
    02:00 +21°C° 0 mm 1 mps 676 mmHg 39%
    03:00 +19°C° 0 mm 2 mps 676 mmHg 39%
    04:00 +19°C° 0 mm 2 mps 676 mmHg 38%
    05:00 +19°C° 0 mm 2 mps 676 mmHg 37%
    06:00 +20°C° 0 mm 2 mps 677 mmHg 37%
    07:00 +20°C° 0 mm 2 mps 677 mmHg 36%
    08:00 +21°C° 0 mm 2 mps 677 mmHg 32%
    09:00 +24°C° 0 mm 2 mps 678 mmHg 29%
    10:00 +25°C° 0 mm 2 mps 678 mmHg 26%
    11:00 +26°C° 0 mm 2 mps 678 mmHg 25%
    12:00 +27°C° 0 mm 2 mps 678 mmHg 24%
    13:00 +28°C° 0 mm 1 mps 677 mmHg 24%
    14:00 +28°C° 0 mm 2 mps 677 mmHg 24%
    15:00 +28°C° 0 mm 2 mps 677 mmHg 24%
    16:00 +29°C° 0 mm 2 mps 676 mmHg 24%
    17:00 +28°C° 0 mm 2 mps 676 mmHg 27%
    18:00 +27°C° 0 mm 2 mps 677 mmHg 30%
    19:00 +26°C° 0 mm 1 mps 677 mmHg 33%
    20:00 +26°C° 0 mm 1 mps 677 mmHg 34%
    21:00 +25°C° 0 mm 2 mps 677 mmHg 34%
    22:00 +25°C° 0 mm 2 mps 677 mmHg 34%
    23:00 +25°C° 0 mm 2 mps 677 mmHg 36%

    27 March, Wednesday

    Time Temperature Precipitation Wind Pressure Humidity
    00:00 +24°C° 0 mm 1 mps 677 mmHg 38%
    01:00 +24°C° 0 mm 1 mps 676 mmHg 40%
    02:00 +23°C° 0 mm 1 mps 676 mmHg 41%
    03:00 +23°C° 0 mm 1 mps 676 mmHg 43%
    04:00 +23°C° 0 mm 1 mps 676 mmHg 44%
    05:00 +23°C° 0 mm 1 mps 676 mmHg 43%
    06:00 +23°C° 0 mm 1 mps 677 mmHg 42%
    07:00 +24°C° 0 mm 2 mps 677 mmHg 41%
    08:00 +25°C° 0 mm 2 mps 677 mmHg 36%
    09:00 +26°C° 0 mm 2 mps 677 mmHg 31%
    10:00 +27°C° 0 mm 3 mps 678 mmHg 26%
    11:00 +28°C° 0 mm 3 mps 678 mmHg 25%
    12:00 +29°C° 0 mm 4 mps 677 mmHg 25%
    13:00 +30°C° 0 mm 5 mps 677 mmHg 24%
    14:00 +30°C° 0 mm 6 mps 677 mmHg 24%
    15:00 +30°C° 0 mm 7 mps 677 mmHg 24%
    16:00 +29°C° 0 mm 9 mps 677 mmHg 24%
    17:00 +27°C° 0.2 mm 7 mps 677 mmHg 30%
    18:00 +25°C° 0.2 mm 5 mps 677 mmHg 37%
    19:00 +24°C° 0.2 mm 3 mps 678 mmHg 43%
    20:00 +22°C° 0.2 mm 3 mps 678 mmHg 46%
    21:00 +23°C° 0.2 mm 2 mps 678 mmHg 49%
    22:00 +21°C° 0.2 mm 2 mps 678 mmHg 52%
    23:00 +21°C° 0 mm 2 mps 678 mmHg 54%

    28 March, Thursday

    Time Temperature Precipitation Wind Pressure Humidity
    00:00 +20°C° 0 mm 2 mps 677 mmHg 57%
    01:00 +20°C° 0 mm 2 mps 677 mmHg 59%
    02:00 +19°C° 0 mm 2 mps 676 mmHg 60%
    03:00 +19°C° 0 mm 2 mps 676 mmHg 60%
    04:00 +19°C° 0 mm 2 mps 676 mmHg 60%
    05:00 +19°C° 0 mm 2 mps 676 mmHg 58%
    06:00 +20°C° 0 mm 2 mps 677 mmHg 56%
    07:00 +20°C° 0 mm 3 mps 677 mmHg 53%
    08:00 +23°C° 0 mm 2 mps 678 mmHg 48%
    09:00 +24°C° 0 mm 2 mps 678 mmHg 42%
    10:00 +26°C° 0 mm 2 mps 678 mmHg 36%
    11:00 +27°C° 0 mm 2 mps 678 mmHg 33%
    12:00 +28°C° 0 mm 2 mps 677 mmHg 29%
    13:00 +29°C° 0 mm 2 mps 676 mmHg 26%
    14:00 +29°C° 0 mm 2 mps 676 mmHg 24%
    15:00 +29°C° 0 mm 3 mps 676 mmHg 22%
    16:00 +30°C° 0 mm 3 mps 675 mmHg 20%
    17:00 +29°C° 0 mm 3 mps 675 mmHg 22%
    18:00 +28°C° 0 mm 2 mps 675 mmHg 23%
    19:00 +28°C° 0 mm 2 mps 676 mmHg 25%
    20:00 +26°C° 0 mm 3 mps 676 mmHg 33%
    21:00 +23°C° 0 mm 5 mps 676 mmHg 41%
    22:00 +22°C° 0 mm 6 mps 676 mmHg 50%
    23:00 +21°C° 0 mm 5 mps 675 mmHg 52%

    29 March, Friday

    Time Temperature Precipitation Wind Pressure Humidity
    00:00 +21°C° 0 mm 4 mps 675 mmHg 54%
    01:00 +20°C° 0 mm 3 mps 675 mmHg 56%
    02:00 +19°C° 0.9 mm 3 mps 674 mmHg 60%
    03:00 +19°C° 0.9 mm 3 mps 674 mmHg 63%
    04:00 +18°C° 0.9 mm 3 mps 674 mmHg 67%
    05:00 +18°C° 0.1 mm 3 mps 674 mmHg 66%
    06:00 +18°C° 0.1 mm 3 mps 674 mmHg 66%
    07:00 +18°C° 0.1 mm 3 mps 675 mmHg 65%
    08:00 +20°C° 0 mm 3 mps 675 mmHg 59%
    09:00 +21°C° 0 mm 2 mps 675 mmHg 53%
    10:00 +24°C° 0 mm 2 mps 676 mmHg 47%
    11:00 +25°C° 0 mm 3 mps 675 mmHg 41%
    12:00 +26°C° 0 mm 4 mps 675 mmHg 36%
    13:00 +28°C° 0 mm 4 mps 675 mmHg 30%
    14:00 +28°C° 0 mm 5 mps 675 mmHg 29%
    15:00 +28°C° 0 mm 6 mps 675 mmHg 27%
    16:00 +28°C° 0 mm 6 mps 674 mmHg 26%
    17:00 +27°C° 0 mm 6 mps 675 mmHg 27%
    18:00 +26°C° 0 mm 6 mps 675 mmHg 28%
    19:00 +24°C° 0 mm 6 mps 675 mmHg 30%
    20:00 +23°C° 0 mm 5 mps 675 mmHg 32%
    21:00 +22°C° 0 mm 4 mps 676 mmHg 35%
    22:00 +21°C° 0 mm 3 mps 676 mmHg 38%
    23:00 +20°C° 0 mm 2 mps 676 mmHg 39%
    Show more